Weather History for K5H4 - March, 2014

Change the Weather History Date:

Monday, March 10, 2014

  Actual Average (KRUG) Record (KRUG)
Temperature  
Mean Temperature 38 °F -  
Max Temperature 44 °F 33 °F 57 °F (1990)
Min Temperature 32 °F 11 °F -24 °F (1979)
Degree Days  
Heating Degree Days 27    
Moisture  
Dew Point 34 °F    
Average Humidity 86    
Maximum Humidity 100    
Minimum Humidity 71    
Precipitation  
Precipitation 0.00 in - - ()
Sea Level Pressure  
Sea Level Pressure 29.69 in    
Wind  
Wind Speed 12 mph (WNW)    
Max Wind Speed 17 mph    
Max Gust Speed 22 mph    
Visibility 10 miles    
Events      
Averages and records for this station are not official NWS values.
T = Trace of Precipitation, MM = Missing Value Source: NWS Daily Summary

Daily Weather History Graph

Daily Weather History Graph

Search for Another Location

Airport or City:

Trip Planner

Search our weather history database for the weather conditions in past years. The results will help you decide how hot, cold, wet, or windy it might be!

Date:

Astronomy

Mar. 10, 2014 Rise Set
Actual Time 8:02 AM CDT 7:37 PM CDT
Civil Twilight 7:31 AM CDT 8:08 PM CDT
Nautical Twilight 6:56 AM CDT 8:44 PM CDT
Astronomical Twilight 6:19 AM CDT 9:21 PM CDT
Moon 2:05 PM CDT (3/10) 4:33 AM CDT (3/10)
Length of Visible Light 12h 36m
Length of Day
11h 35m
Waxing Gibbous, 70% of the Moon is Illuminated
Mar 10
Waxing Gibbous
Mar 16
Full
Mar 23
Last Quarter
Mar 30
New
Apr 7
First Quarter

Hourly Weather History & Observations

Time (CDT) Temp. Windchill Dew Point Humidity Pressure Visibility Wind Dir Wind Speed Gust Speed Precip Events Conditions
12:15 AM 37.4 °F 28.2 °F 35.6 °F 93% 29.60 in 10.0 mi WSW 16.1 mph - N/A   Clear
12:35 AM 37.4 °F 28.2 °F 35.6 °F 93% 29.59 in 10.0 mi West 16.1 mph - N/A   Clear
12:55 AM 39.2 °F 31.2 °F 35.6 °F 87% 29.60 in 10.0 mi West 13.8 mph - N/A   Clear
1:15 AM 39.2 °F 30.2 °F 35.6 °F 87% 29.60 in 10.0 mi West 17.3 mph - N/A   Clear
1:35 AM 39.2 °F 30.5 °F 35.6 °F 87% 29.60 in 10.0 mi West 16.1 mph - N/A   Clear
1:55 AM 39.2 °F 30.8 °F 35.6 °F 87% 29.60 in 10.0 mi West 15.0 mph - N/A   Clear
2:15 AM 37.4 °F 29.3 °F 35.6 °F 93% 29.61 in 10.0 mi WSW 12.7 mph - N/A   Clear
2:35 AM 37.4 °F 28.5 °F 35.6 °F 93% 29.61 in 10.0 mi West 15.0 mph - N/A   Clear
2:55 AM 37.4 °F 28.2 °F 35.6 °F 93% 29.61 in 10.0 mi WSW 16.1 mph - N/A   Clear
3:15 AM 37.4 °F 29.3 °F 35.6 °F 93% 29.61 in 10.0 mi West 12.7 mph - N/A   Clear
3:35 AM 37.4 °F 29.3 °F 35.6 °F 93% 29.62 in 10.0 mi West 12.7 mph - N/A   Clear
3:55 AM 35.6 °F 26.6 °F 35.6 °F 100% 29.62 in 10.0 mi West 13.8 mph - N/A   Clear
4:15 AM 37.4 °F 29.3 °F 35.6 °F 93% 29.62 in 10.0 mi West 12.7 mph - N/A   Clear
4:35 AM 37.4 °F 29.8 °F 35.6 °F 93% 29.63 in 10.0 mi West 11.5 mph - N/A   Clear
4:55 AM 37.4 °F 29.3 °F 35.6 °F 93% 29.62 in 10.0 mi West 12.7 mph - N/A   Clear
5:15 AM 37.4 °F 29.3 °F 35.6 °F 93% 29.62 in 10.0 mi West 12.7 mph - N/A   Clear
5:35 AM 37.4 °F 29.8 °F 35.6 °F 93% 29.63 in 10.0 mi West 11.5 mph - N/A   Clear
5:55 AM 37.4 °F 29.8 °F 35.6 °F 93% 29.63 in 10.0 mi West 11.5 mph - N/A   Clear
6:15 AM 37.4 °F 30.8 °F 35.6 °F 93% 29.65 in 10.0 mi West 9.2 mph - N/A   Clear
6:35 AM 33.8 °F 25.8 °F 32.0 °F 93% 29.66 in 10.0 mi West 10.4 mph - N/A   Clear
6:55 AM 35.6 °F 29.2 °F 35.6 °F 100% 29.65 in 10.0 mi West 8.1 mph - N/A   Clear
7:15 AM 35.6 °F 29.2 °F 33.8 °F 93% 29.66 in 10.0 mi West 8.1 mph - N/A   Clear
7:35 AM 35.6 °F 29.2 °F 33.8 °F 93% 29.67 in 10.0 mi West 8.1 mph - N/A   Clear
7:55 AM 35.6 °F 28.6 °F 33.8 °F 93% 29.67 in 10.0 mi West 9.2 mph - N/A   Clear
8:15 AM 33.8 °F 27.7 °F 32.0 °F 93% 29.68 in 10.0 mi West 6.9 mph - N/A   Clear
8:35 AM 35.6 °F 28.0 °F 32.0 °F 87% 29.69 in 10.0 mi West 10.4 mph - N/A   Clear
8:55 AM 35.6 °F 28.0 °F 32.0 °F 87% 29.69 in 10.0 mi WSW 10.4 mph - N/A   Clear
9:15 AM 35.6 °F 30.7 °F 32.0 °F 87% 29.68 in 10.0 mi West 5.8 mph - N/A   Clear
9:35 AM 35.6 °F 28.6 °F 33.8 °F 93% 29.69 in 10.0 mi West 9.2 mph - N/A   Clear
9:55 AM 37.4 °F 29.8 °F 33.8 °F 87% 29.70 in 10.0 mi West 11.5 mph - N/A   Clear
10:15 AM 39.2 °F 32.0 °F 33.8 °F 81% 29.70 in 10.0 mi West 11.5 mph - N/A   Clear
10:35 AM 39.2 °F 31.6 °F 35.6 °F 87% 29.71 in 10.0 mi West 12.7 mph - N/A   Clear
10:55 AM 41.0 °F 34.3 °F 35.6 °F 81% 29.71 in 10.0 mi WNW 11.5 mph - N/A   Clear
11:15 AM 41.0 °F 33.9 °F 33.8 °F 76% 29.71 in 10.0 mi WNW 12.7 mph 17.3 mph N/A   Clear
11:35 AM 41.0 °F 33.5 °F 33.8 °F 76% 29.71 in 10.0 mi WNW 13.8 mph 20.7 mph N/A   Clear
11:55 AM 42.8 °F 35.8 °F 35.6 °F 76% 29.71 in 10.0 mi West 13.8 mph - N/A   Clear
12:15 PM 42.8 °F 36.2 °F 35.6 °F 76% 29.70 in 10.0 mi WNW 12.7 mph 18.4 mph N/A   Clear
12:35 PM 42.8 °F 36.2 °F 35.6 °F 76% 29.71 in 10.0 mi WNW 12.7 mph - N/A   Clear
12:55 PM 44.6 °F 37.8 °F 35.6 °F 71% 29.71 in 10.0 mi WNW 15.0 mph - N/A   Clear
1:15 PM 44.6 °F 37.8 °F 35.6 °F 71% 29.71 in 10.0 mi NW 15.0 mph - N/A   Clear
1:35 PM 44.6 °F 39.2 °F 35.6 °F 71% 29.71 in 10.0 mi NW 10.4 mph - N/A   Clear
1:55 PM 44.6 °F 37.2 °F 35.6 °F 71% 29.71 in 10.0 mi NW 17.3 mph 21.9 mph N/A   Clear
2:15 PM 44.6 °F 38.1 °F 35.6 °F 71% 29.71 in 10.0 mi NW 13.8 mph - N/A   Clear
2:35 PM 44.6 °F 38.8 °F 35.6 °F 71% 29.71 in 10.0 mi NW 11.5 mph - N/A   Clear
2:55 PM 44.6 °F 38.4 °F 35.6 °F 71% 29.71 in 10.0 mi NW 12.7 mph - N/A   Clear
3:15 PM 44.6 °F 38.8 °F 35.6 °F 71% 29.71 in 10.0 mi NW 11.5 mph - N/A   Clear
3:35 PM 44.6 °F 38.8 °F 35.6 °F 71% 29.71 in 10.0 mi WNW 11.5 mph - N/A   Clear
3:55 PM 44.6 °F 39.7 °F 35.6 °F 71% 29.71 in 10.0 mi WNW 9.2 mph - N/A   Clear
4:15 PM 42.8 °F 37.0 °F 35.6 °F 76% 29.70 in 10.0 mi NW 10.4 mph - N/A   Clear
4:35 PM 41.0 °F 35.8 °F 35.6 °F 81% 29.72 in 10.0 mi NW 8.1 mph - N/A   Clear
4:55 PM 41.0 °F 35.8 °F 35.6 °F 81% 29.72 in 10.0 mi NNW 8.1 mph - N/A   Partly Cloudy
5:15 PM 41.0 °F 37.1 °F 35.6 °F 81% 29.72 in 10.0 mi NW 5.8 mph - N/A   Mostly Cloudy
5:35 PM 41.0 °F 36.4 °F 35.6 °F 81% 29.72 in 10.0 mi NW 6.9 mph - N/A   Scattered Clouds
5:55 PM 41.0 °F 38.0 °F 35.6 °F 81% 29.72 in 10.0 mi NNW 4.6 mph - N/A   Clear
6:15 PM 39.2 °F 35.0 °F 35.6 °F 87% 29.72 in 10.0 mi WNW 5.8 mph - N/A   Clear
6:35 PM 39.2 °F 37.0 °F 33.8 °F 81% 29.72 in 10.0 mi NNW 3.5 mph - N/A   Clear
6:55 PM 39.2 °F 35.0 °F 33.8 °F 81% 29.72 in 10.0 mi NW 5.8 mph - N/A   Partly Cloudy
7:15 PM 37.4 °F 32.1 °F 33.8 °F 87% 29.73 in 10.0 mi NW 6.9 mph - N/A   Partly Cloudy
7:35 PM 37.4 °F 31.4 °F 32.0 °F 81% 29.74 in 10.0 mi WNW 8.1 mph - N/A   Clear
7:55 PM 37.4 °F 31.4 °F 32.0 °F 81% 29.75 in 10.0 mi WNW 8.1 mph - N/A   Clear
8:15 PM 37.4 °F 31.4 °F 32.0 °F 81% 29.75 in 10.0 mi WNW 8.1 mph - N/A   Clear
8:35 PM 37.4 °F 31.4 °F 32.0 °F 81% 29.76 in 10.0 mi WNW 8.1 mph - N/A   Clear
8:55 PM 35.6 °F 29.2 °F 32.0 °F 87% 29.76 in 10.0 mi WNW 8.1 mph - N/A   Clear
9:15 PM 35.6 °F 29.2 °F 32.0 °F 87% 29.77 in 10.0 mi WNW 8.1 mph - N/A   Clear
9:35 PM 33.8 °F 26.4 °F 32.0 °F 93% 29.77 in 10.0 mi NW 9.2 mph - N/A   Clear
9:55 PM 33.8 °F 26.4 °F 32.0 °F 93% 29.77 in 10.0 mi WNW 9.2 mph - N/A   Clear
10:15 PM 33.8 °F 27.0 °F 32.0 °F 93% 29.78 in 10.0 mi NW 8.1 mph - N/A   Clear
10:35 PM 33.8 °F 26.4 °F 32.0 °F 93% 29.78 in 10.0 mi NW 9.2 mph - N/A   Clear
10:55 PM 33.8 °F 27.0 °F 32.0 °F 93% 29.78 in 10.0 mi NW 8.1 mph - N/A   Clear
11:15 PM 33.8 °F 27.0 °F 32.0 °F 93% 29.78 in 10.0 mi NW 8.1 mph - N/A   Clear
11:35 PM 32.0 °F 24.8 °F 32.0 °F 100% 29.78 in 10.0 mi NW 8.1 mph - N/A   Clear
11:55 PM 32.0 °F 25.6 °F 32.0 °F 100% 29.78 in 10.0 mi WNW 6.9 mph - N/A   Clear